Find Starlink 2711

NORAD ID: 48673 Int'l Des: 2021-044 Owner: SPXS Country: US Constellation: starlink operational
LEOCIRCULARSTARLINK_TYPE

現在のビュー

3D地球を読み込み中...

About Starlink 2711

Starlink 2711 (NORAD 48673) is a starlink constellation satellite (v1.0) launched May 26, 2021 by SPXS of US. It operates in LEO, CIRCULAR, STARLINK_TYPE orbit with a mass of 260.00 kg.

Starlink 2711について

説明を読み込み中...

次回通過

Passes for default location (London). Set your location on the main map for personalized predictions.

高度履歴

Loading altitude history...

軌道要素

1 48673U 21044AM 26194.47591029 -.00000295 00000-0 21135-5 0 9992
2 48673 53.1552 249.9288 0001308 79.9652 280.1496 15.29352289283068
Epoch: Jul 13, 2026 • Age: 16 hours

現在のステータス

高度 478.3 km
遠地点 / 近地点 N/A
速度 7.63 km/s
衛星直下点 24.70°N, 58.4°E
打ち上げ日 May 26, 2021
運用期間 5.1 years
タイプ internet

技術仕様

分類 Payload
質量 260.00 kg
乾燥質量 248.00 kg
総質量 260.00 kg
長さ 0.20 m
直径 2.80 m
スパン 9.00 m
形状 Box + pan
製造者 SPXS
バスタイプ Starlink
フェーズステータス In Orbit
所有者/国 SPXS/US

Most Searched